OpenBCM V2.0.2 (Linux)

Packet Radio Mailbox

IZ3LSV

[San Dona' di P. JN]

 Login: GUEST





  
LU9DCE > KEPS     14.07.18 19:28l 252 Lines 12467 Bytes #999 (0) @ WW
BID : 8918_LU9DCE
Read: GUEST
Subj: SAT TLE 20 06 2018
Path: IZ3LSV<IW8PGT<CX2SA<UA6ADV<LU4ECL<LU9DCE
Sent: 180620/1228Z @:LU9DCE.TOR.BA.ARG.SOAM #:8918 BPQ6.0.16


            __    _  _  ___  ____   ___  ____    ____  ____  ____
           (  )  / )( \/ _ \(    \ / __)(  __)  (  _ \(  _ \/ ___)
           / (_/\) \/ (\__  )) D (( (__  ) _)    ) _ ( ) _ (\___ \
           \____/\____/(___/(____/ \___)(____)  (____/(____/(____/
               ESTACION DE PACKET RADIO - BUENOS AIRES (GF05OM)
                   BOLETINES INFORMATIVOS PROGRAMADOS (BIP)
                    LU9DCE@GMX.COM - RF 145070 @ 1200 BAUD
                   AXIP NETROM -- LU9DCE.DYNU.COM UDP 10093

+------------------------------------------------------------------------------+
OSCAR 7
1  7530U 74089B   18170.88640882 -.00000025 +00000-0 +12111-3 0  9991
2  7530 101.6869 138.1660 0011979 332.3948 083.8323 12.53633055994701
OSCAR 11 (UoSAT 2)
1 14781U 84021B   18170.56430870  .00000055  00000-0  12966-4 0  9994
2 14781  97.6488 206.6795 0010016  77.9813 282.2523 14.83011636844792
OSCAR 19 (LUSAT)
1 20442U 90005G   18170.86604697 +.00000014 +00000-0 +21328-4 0  9994
2 20442 098.6101 109.3412 0012481 138.0267 222.1876 14.32898156484216
EYESAT A
1 22825U 93061C   18170.87945965 -.00000000 +00000-0 +17753-4 0  9996
2 22825 098.8625 147.0436 0008107 346.7232 013.3734 14.30032703289684
ITAMSAT
1 22826U 93061D   18170.89565496 -.00000006 +00000-0 +15525-4 0  9997
2 22826 098.8566 147.0975 0008450 335.4677 024.6102 14.30364218289892
RADIO ROSTO
1 23439U 94085A   18170.91405594 -.00000026 +00000-0 +47215-3 0  9992
2 23439 064.8183 344.4229 0157161 181.5582 296.4521 11.27567265966879
JAS 2
1 24278U 96046B   18170.81845899 -.00000047 +00000-0 -15246-4 0  9992
2 24278 098.5174 009.2130 0351398 104.0659 259.9799 13.53084058078347
TECHSAT 1B
1 25397U 98043D   18170.91309589 -.00000010 +00000-0 +14665-4 0  9999
2 25397 098.6499 111.3065 0001952 047.7881 312.3463 14.23647138035898
ISS (ZARYA)
1 25544U 98067A   18170.85142973 +.00001883 +00000-0 +35594-4 0  9996
2 25544 051.6423 005.4255 0002781 202.8407 242.2889 15.54199840118938
PCSAT
1 26931U 01043C   18170.59219592 -.00000049 +00000-0 +12848-4 0  9999
2 26931 067.0505 223.2040 0007910 274.2933 085.7265 14.30508231872823
SAUDISAT 1C
1 27607U 02058C   18171.19439669 -.00000012  00000-0  19047-4 0  9991
2 27607  64.5560  80.8430 0065610 327.7264  31.9831 14.75458078833404
CUTE-1
1 27844U 03031E   18170.91331867 +.00000037 +00000-0 +36451-4 0  9990
2 27844 098.6862 179.5297 0009986 011.3605 348.7796 14.22118390776548
CUBESAT XI 4
1 27848U 03031J   18170.94378901  .00000030  00000-0  33694-4 0  9996
2 27848  98.6946 179.9586 0010070  21.3762 338.7835 14.21721917776458
MOZHAYETS 4
1 27939U 03042A   18171.24250135  .00000079  00000-0  22644-4 0  9997
2 27939  97.9910 310.2977 0014000 134.9943 268.5392 14.66694050787260
CUBESAT XI 5
1 28895U 05043F   18170.94267479 +.00000108 +00000-0 +29577-4 0  9992
2 28895 097.9094 322.2864 0018102 063.4422 296.8634 14.63554585674047
CUTE-1.7+APD II
1 32785U 08021C   18170.80462740 +.00000200 +00000-0 +27277-4 0  9995
2 32785 097.5467 182.8581 0013996 035.8314 324.3839 14.88132133549497
DELFI C3
1 32789U 08021G   18170.90239446 +.00001607 +00000-0 +11402-3 0  9999
2 32789 097.5116 225.6434 0010860 290.8319 069.1745 15.06092941552093
SEEDS
1 32791U 08021J   18170.75476934 +.00000236 +00000-0 +29483-4 0  9996
2 32791 097.5356 188.1753 0013787 017.1225 343.0456 14.90567290549811
YUBELEINY
1 32953U 08025A   18171.17817586  .00000014  00000-0  27917-4 0  9993
2 32953  82.5028  10.8196 0018683 201.0416 158.9897 12.43083487457142
PRISM (HITOMI)
1 33493U 09002B   18171.17748724 -.00000012  00000-0  46457-5 0  9996
2 33493  98.1323  73.3838 0014803 312.1388  47.8557 14.96235198510790
KKS-1 (KISEKI)
1 33499U 09002H   18170.89179030 +.00000077 +00000-0 +19447-4 0  9996
2 33499 098.3564 352.7460 0007941 286.8368 073.1969 14.75336788505157
SWISSCUBE
1 35932U 09051B   18170.97890814  .00000107  00000-0  35120-4 0  9993
2 35932  98.5458 322.2062 0007393 192.3870 167.7146 14.56167345463841
BEESAT
1 35933U 09051C   18171.21206003  .00000107  00000-0  35091-4 0  9990
2 35933  98.5497 323.9949 0005343 202.6703 157.4259 14.56270596463989
ITUPSAT 1
1 35935U 09051E   18170.92480177 +.00000097 +00000-0 +33515-4 0  9992
2 35935 098.5609 323.9533 0007703 202.0277 158.0590 14.55446927463692
XIWANG-1 (HOPE-1)
1 36122U 09072B   18170.90070589 -.00000034 +00000-0 +21047-4 0  9993
2 36122 100.0748 185.4092 0008261 105.0829 255.1199 13.16345014409011
TISAT 1
1 36799U 10035E   18170.93510504 +.00000427 +00000-0 +49484-4 0  9993
2 36799 098.1068 307.2233 0012070 193.2684 166.8218 14.90812486430362
JUGNU
1 37839U 11058B   18170.89735334 +.00000299 +00000-0 +17688-4 0  9998
2 37839 019.9629 020.8156 0018945 276.8640 201.1535 14.12621499345648
SRMSAT
1 37841U 11058D   18170.83746035  .00000298  00000-0  18443-4 0  9994
2 37841  19.9729  70.4330 0011953 159.5836 258.1786 14.10608455345255
M-CUBED/EXP-1 PRIME
1 37855U 11061F   18170.80137738 +.00001556 +00000-0 +86745-4 0  9992
2 37855 101.7156 234.6723 0176532 074.5762 287.4873 15.04464321361574
HORYU 2
1 38340U 12025D   18170.65114816  .00000165  00000-0  32248-4 0  9992
2 38340  98.3656 192.4567 0011123 196.5871 163.4974 14.75563238327477
STRAND 1
1 39090U 13009E   18170.61996958 +.00000001 +00000-0 +15543-4 0  9997
2 39090 098.5217 016.9737 0008096 294.0258 066.0080 14.35029473278152
SOMP
1 39134U 13015E   18170.89902362 +.00001195 +00000-0 +65949-4 0  9999
2 39134 064.8634 118.1371 0012586 214.2163 145.8155 15.19185226284931
BEESAT 3
1 39135U 13015F   18171.18913098  .00001013  00000-0  61316-4 0  9994
2 39135  64.8678 130.5931 0020096 236.8409 123.0789 15.16692828285107
BEESAT 2
1 39136U 13015G   18171.22586289  .00000855  00000-0  54046-4 0  9993
2 39136  64.8687 133.2694 0022344 236.7006 123.1979 15.16161069285058
CUBEBUG 1
1 39153U 13018D   18171.21502874  .00000145  00000-0  25957-4 0  9993
2 39153  97.9792 266.4449 0015629 298.5856  61.3782 14.80403106278031
ZACUBE
1 39417U 13066B   18170.88222524 +.00000159 +00000-0 +26414-4 0  9996
2 39417 097.5866 199.3780 0060076 145.1296 215.3876 14.80942227247195
TRITON 1
1 39427U 13066M   18170.95917271 +.00000199 +00000-0 +40138-4 0  9998
2 39427 097.6413 166.7026 0112551 250.2573 108.6466 14.67675001244798
GOMX 1
1 39430U 13066Q   18170.90943889  .00000157  00000-0  37801-4 0  9998
2 39430  97.6975 147.5865 0150648 322.4714  36.6045 14.59086706243556
HUMSAT D
1 39433U 13066T   18170.85700083  .00000354  00000-0  40148-4 0  9999
2 39433  97.6034 227.1412 0032501  74.7507 285.7302 14.91875130248834
CUBEBUG 2
1 39440U 13066AA  18170.92072111 +.00000197 +00000-0 +34403-4 0  9991
2 39440 097.6008 185.9956 0080341 185.5507 174.4821 14.75679777245123
FUNCUBE 1
1 39444U 13066AE  18170.94428808 +.00000261 +00000-0 +38466-4 0  9990
2 39444 097.5874 200.9653 0059319 140.3763 220.1809 14.81723352245472
UWE-3
1 39446U 13066AG  18170.87113650 +.00000209 +00000-0 +34476-4 0  9999
2 39446 097.5923 192.2602 0070606 165.7901 194.5319 14.78213803245519
SPROUT
1 39770U 14029E   18171.08365170  .00000630  00000-0  76697-4 0  9998
2 39770  97.8772 272.1041 0008693 190.1434 169.9566 14.86862557220797
UNISAT 6
1 40012U 14033C   18171.20146379  .00000163  00000-0  31902-4 0  9997
2 40012  97.8080  47.3628 0058124 188.2571 171.7687 14.73826801215143
DUCHIFAT 1
1 40021U 14033M   18170.81129772  .00000299  00000-0  36640-4 0  9995
2 40021  97.9162  89.5352 0013159 163.3828 196.7824 14.90317534217346
QB50P1
1 40025U 14033R   18171.10480821  .00000261  00000-0  33952-4 0  9999
2 40025  97.9055  86.4976 0012584 168.8920 191.2577 14.88722920217221
CHUBUSAT 1
1 40300U 14070C   18171.17544285  .00000638  00000-0  31264-4 0  9990
2 40300  97.3642 248.8072 0018504 251.7812 166.4690 15.21584946200734
NUDT-PHONESAT
1 40900U 15049B   18170.93623050 +.00002145 +00000-0 +98684-4 0  9998
2 40900 097.4405 179.1562 0014213 027.1548 333.0428 15.21342875152338
ZDPS 2A
1 40901U 15049C   18171.04569764  .00000805  00000-0  43919-4 0  9995
2 40901  97.4582 177.3473 0014652  34.0904 326.1268 15.17102230152098
ZDPS 2B
1 40902U 15049D   18171.08575865  .00000866  00000-0  47273-4 0  9993
2 40902  97.4482 175.4048 0014658  31.3014 328.9089 15.16896922152080
XW-2A
1 40903U 15049E   18171.16480744  .00002024  00000-0  51824-4 0  9999
2 40903  97.3836 206.0498 0014841  26.6525 333.5481 15.40519934154263
KAITUO 1A
1 40904U 15049F   18171.11519491  .00000271  00000-0  17987-4 0  9991
2 40904  97.4583 174.6448 0015932  32.8843  52.7058 15.15028086151940
OBJECT G
1 40905U 15049G   18171.18975125  .00000376  00000-0  24239-4 0  9993
2 40905  97.4584 172.7881 0016512  26.1505 334.0557 15.13981021151875
XW-2C
1 40906U 15049H   18170.95991587  .00000602  00000-0  35493-4 0  9994
2 40906  97.4595 174.4004 0015765  26.4428 333.7605 15.15202762151915
XW-2D
1 40907U 15049J   18171.17622476  .00000660  00000-0  38418-4 0  9992
2 40907  97.4569 174.3092 0015046  23.9274 336.2655 15.15354823151959
LILACSAT 2
1 40908U 15049K   18170.92201072 +.00000313 +00000-0 +21062-4 0  9992
2 40908 097.4681 173.4151 0016729 025.7507 334.4553 15.13518553151787
XW-2F
1 40910U 15049M   18170.92453756 +.00001003 +00000-0 +54691-4 0  9994
2 40910 097.4569 175.3821 0015665 020.3555 339.8299 15.16552025151996
XW-2B
1 40911U 15049N   18170.92970030 +.00000639 +00000-0 +37378-4 0  9991
2 40911 097.4604 174.6061 0014996 025.3334 334.8631 15.15298000151816
KAITUO 1B
1 40912U 15049P   18170.91651432 +.00000908 +00000-0 +46845-4 0  9991
2 40912 097.4499 178.2050 0015702 008.1319 057.9753 15.18770455152085
TIANWANG 1C (TW-1C)
1 40926U 15051B   18171.16764508  .00006631  00000-0  12373-3 0  9993
2 40926  97.1821 213.4955 0007672 261.7381 135.2509 15.49093611153777
